• In Germany
  • List of Countries
  • For 7 days
  • Water Temperature
  • Satellite Maps
  • Weather Map
  • Weather Widgets
  • user-avatar
    Login

    Hourly Weather Lubango

    Today, 17 January, Wednesday

    Time Temperature Precipitation Wind Pressure Humidity
    00:00 +15°C° 0.1 mm 0 mps 608 mmHg 88%
    01:00 +14°C° 0.1 mm 0 mps 608 mmHg 89%
    02:00 +14°C° 0.2 mm 0 mps 608 mmHg 89%
    03:00 +14°C° 0.2 mm 0 mps 608 mmHg 89%
    04:00 +14°C° 0.2 mm 0 mps 608 mmHg 90%
    05:00 +15°C° 0.3 mm 0 mps 608 mmHg 87%
    06:00 +15°C° 0.3 mm 0 mps 608 mmHg 84%
    07:00 +16°C° 0.3 mm 0 mps 609 mmHg 82%
    08:00 +18°C° 0.6 mm 0 mps 610 mmHg 74%
    09:00 +21°C° 0.6 mm 1 mps 610 mmHg 67%
    10:00 +23°C° 0.6 mm 1 mps 611 mmHg 59%
    11:00 +24°C° 0.8 mm 1 mps 611 mmHg 55%
    12:00 +25°C° 0.8 mm 2 mps 611 mmHg 52%
    13:00 +26°C° 0.8 mm 2 mps 611 mmHg 48%
    14:00 +25°C° 1.2 mm 2 mps 610 mmHg 51%
    15:00 +25°C° 1.2 mm 3 mps 609 mmHg 55%
    16:00 +24°C° 1.2 mm 3 mps 609 mmHg 58%
    17:00 +21°C° 3.7 mm 2 mps 608 mmHg 67%
    18:00 +19°C° 3.7 mm 2 mps 608 mmHg 75%
    19:00 +18°C° 3.7 mm 2 mps 608 mmHg 83%
    20:00 +17°C° 1.3 mm 2 mps 608 mmHg 85%
    21:00 +17°C° 1.3 mm 2 mps 609 mmHg 87%
    22:00 +16°C° 1.3 mm 2 mps 609 mmHg 89%
    23:00 +16°C° 1.2 mm 1 mps 609 mmHg 88%

    Tomorrow, 18 January, Thursday

    Time Temperature Precipitation Wind Pressure Humidity
    00:00 +16°C° 1.2 mm 1 mps 608 mmHg 88%
    01:00 +15°C° 1.2 mm 0 mps 608 mmHg 87%
    02:00 +15°C° 0.3 mm 0 mps 608 mmHg 87%
    03:00 +15°C° 0.3 mm 0 mps 608 mmHg 87%
    04:00 +16°C° 0.3 mm 1 mps 607 mmHg 87%
    05:00 +16°C° 0.1 mm 1 mps 608 mmHg 87%
    06:00 +16°C° 0.1 mm 1 mps 608 mmHg 86%
    07:00 +16°C° 0.1 mm 1 mps 609 mmHg 86%
    08:00 +18°C° 0.7 mm 1 mps 609 mmHg 80%
    09:00 +20°C° 0.7 mm 1 mps 610 mmHg 74%
    10:00 +21°C° 0.7 mm 1 mps 610 mmHg 68%
    11:00 +22°C° 0.7 mm 1 mps 610 mmHg 65%
    12:00 +23°C° 0.7 mm 2 mps 610 mmHg 61%
    13:00 +24°C° 0.7 mm 2 mps 610 mmHg 58%
    14:00 +23°C° 1.5 mm 2 mps 609 mmHg 64%
    15:00 +21°C° 1.5 mm 2 mps 608 mmHg 69%
    16:00 +19°C° 1.5 mm 2 mps 607 mmHg 74%
    17:00 +18°C° 1.3 mm 2 mps 607 mmHg 79%
    18:00 +17°C° 1.3 mm 2 mps 608 mmHg 83%
    19:00 +16°C° 1.3 mm 1 mps 608 mmHg 88%
    20:00 +16°C° 4.5 mm 1 mps 608 mmHg 90%
    21:00 +16°C° 4.5 mm 1 mps 609 mmHg 92%
    22:00 +15°C° 4.5 mm 2 mps 609 mmHg 94%
    23:00 +15°C° 1.1 mm 1 mps 609 mmHg 94%

    Day after tomorrow, 19 January, Friday

    Time Temperature Precipitation Wind Pressure Humidity
    00:00 +15°C° 1.1 mm 1 mps 608 mmHg 94%
    01:00 +15°C° 1.1 mm 1 mps 608 mmHg 94%
    02:00 +15°C° 0.2 mm 1 mps 608 mmHg 94%
    03:00 +15°C° 0.2 mm 1 mps 607 mmHg 94%
    04:00 +15°C° 0.2 mm 1 mps 607 mmHg 94%
    05:00 +15°C° 0.1 mm 1 mps 607 mmHg 93%
    06:00 +15°C° 0.1 mm 1 mps 608 mmHg 92%
    07:00 +14°C° 0.1 mm 0 mps 608 mmHg 92%
    08:00 +16°C° 0.4 mm 1 mps 608 mmHg 87%
    09:00 +18°C° 0.4 mm 1 mps 609 mmHg 83%
    10:00 +19°C° 0.4 mm 1 mps 609 mmHg 78%
    11:00 +20°C° 0.7 mm 1 mps 609 mmHg 75%
    12:00 +21°C° 0.7 mm 1 mps 609 mmHg 73%
    13:00 +20°C° 0.7 mm 2 mps 609 mmHg 70%
    14:00 +20°C° 1.4 mm 2 mps 608 mmHg 73%
    15:00 +19°C° 1.4 mm 2 mps 608 mmHg 76%
    16:00 +19°C° 1.4 mm 2 mps 607 mmHg 79%
    17:00 +19°C° 1.4 mm 1 mps 607 mmHg 82%
    18:00 +18°C° 1.4 mm 1 mps 607 mmHg 85%
    19:00 +16°C° 1.4 mm 1 mps 607 mmHg 88%
    20:00 +16°C° 0.1 mm 1 mps 608 mmHg 90%
    21:00 +16°C° 0.1 mm 1 mps 608 mmHg 92%
    22:00 +15°C° 0.1 mm 1 mps 608 mmHg 93%
    23:00 +15°C° 0.1 mm 1 mps 608 mmHg 94%

    20 January, Saturday

    Time Temperature Precipitation Wind Pressure Humidity
    00:00 +15°C° 0.1 mm 1 mps 608 mmHg 94%
    01:00 +15°C° 0.1 mm 1 mps 607 mmHg 95%
    02:00 +15°C° 0 mm 1 mps 607 mmHg 94%
    03:00 +15°C° 0 mm 1 mps 607 mmHg 94%
    04:00 +14°C° 0 mm 1 mps 607 mmHg 94%
    05:00 +15°C° 0 mm 1 mps 607 mmHg 94%
    06:00 +15°C° 0 mm 1 mps 608 mmHg 93%
    07:00 +15°C° 0 mm 1 mps 608 mmHg 92%
    08:00 +18°C° 0 mm 1 mps 609 mmHg 85%
    09:00 +19°C° 0 mm 1 mps 610 mmHg 77%
    10:00 +21°C° 0 mm 1 mps 610 mmHg 70%
    11:00 +21°C° 0.6 mm 1 mps 610 mmHg 68%
    12:00 +22°C° 0.6 mm 1 mps 609 mmHg 66%
    13:00 +21°C° 0.6 mm 2 mps 609 mmHg 64%
    14:00 +21°C° 0.9 mm 2 mps 609 mmHg 65%
    15:00 +21°C° 0.9 mm 2 mps 608 mmHg 66%
    16:00 +21°C° 0.9 mm 2 mps 608 mmHg 67%
    17:00 +19°C° 0.5 mm 2 mps 608 mmHg 73%
    18:00 +18°C° 0.5 mm 2 mps 608 mmHg 79%
    19:00 +17°C° 0.5 mm 2 mps 608 mmHg 85%
    20:00 +16°C° 0.1 mm 1 mps 608 mmHg 87%
    21:00 +16°C° 0.1 mm 1 mps 608 mmHg 88%
    22:00 +15°C° 0.1 mm 1 mps 609 mmHg 90%
    23:00 +15°C° 0 mm 1 mps 608 mmHg 91%

    21 January, Sunday

    Time Temperature Precipitation Wind Pressure Humidity
    00:00 +15°C° 0 mm 1 mps 608 mmHg 91%
    01:00 +15°C° 0 mm 1 mps 608 mmHg 92%
    02:00 +15°C° 0 mm 1 mps 607 mmHg 92%
    03:00 +15°C° 0 mm 1 mps 607 mmHg 93%
    04:00 +13°C° 0 mm 0 mps 607 mmHg 93%
    05:00 +14°C° 0.1 mm 0 mps 608 mmHg 91%
    06:00 +14°C° 0.1 mm 0 mps 608 mmHg 89%
    07:00 +14°C° 0.1 mm 0 mps 609 mmHg 87%
    08:00 +16°C° 0.2 mm 0 mps 609 mmHg 80%
    09:00 +20°C° 0.2 mm 1 mps 610 mmHg 73%
    10:00 +22°C° 0.2 mm 1 mps 611 mmHg 66%
    11:00 +22°C° 0.6 mm 1 mps 610 mmHg 64%
    12:00 +23°C° 0.6 mm 2 mps 610 mmHg 62%
    13:00 +24°C° 0.6 mm 2 mps 610 mmHg 60%
    14:00 +23°C° 0.8 mm 2 mps 609 mmHg 63%
    15:00 +21°C° 0.8 mm 2 mps 609 mmHg 65%
    16:00 +20°C° 0.8 mm 2 mps 608 mmHg 68%
    17:00 +19°C° 0.6 mm 2 mps 608 mmHg 74%
    18:00 +18°C° 0.6 mm 2 mps 608 mmHg 80%
    19:00 +18°C° 0.6 mm 1 mps 608 mmHg 86%
    20:00 +16°C° 0.2 mm 1 mps 608 mmHg 87%
    21:00 +16°C° 0.2 mm 1 mps 608 mmHg 88%
    22:00 +16°C° 0.2 mm 1 mps 609 mmHg 89%
    23:00 +16°C° 0.1 mm 1 mps 608 mmHg 90%

    22 January, Monday

    Time Temperature Precipitation Wind Pressure Humidity
    00:00 +15°C° 0.1 mm 1 mps 608 mmHg 91%
    01:00 +15°C° 0.1 mm 1 mps 608 mmHg 91%
    02:00 +15°C° 0.1 mm 1 mps 608 mmHg 92%
    03:00 +15°C° 0.1 mm 1 mps 608 mmHg 92%
    04:00 +15°C° 0.1 mm 1 mps 608 mmHg 92%
    05:00 +14°C° 0 mm 0 mps 608 mmHg 91%
    06:00 +14°C° 0 mm 0 mps 608 mmHg 89%
    07:00 +15°C° 0 mm 0 mps 609 mmHg 88%
    08:00 +18°C° 0.7 mm 1 mps 609 mmHg 80%
    09:00 +20°C° 0.7 mm 1 mps 610 mmHg 73%
    10:00 +22°C° 0.7 mm 1 mps 611 mmHg 65%
    11:00 +21°C° 1 mm 2 mps 610 mmHg 63%
    12:00 +23°C° 1 mm 2 mps 610 mmHg 61%
    13:00 +23°C° 1 mm 2 mps 609 mmHg 59%
    14:00 +23°C° 1.1 mm 2 mps 609 mmHg 62%
    15:00 +21°C° 1.1 mm 3 mps 608 mmHg 65%
    16:00 +21°C° 1.1 mm 3 mps 608 mmHg 68%
    17:00 +19°C° 0.7 mm 2 mps 608 mmHg 73%
    18:00 +18°C° 0.7 mm 2 mps 608 mmHg 78%
    19:00 +17°C° 0.7 mm 2 mps 608 mmHg 83%
    20:00 +17°C° 0.4 mm 2 mps 608 mmHg 85%
    21:00 +16°C° 0.4 mm 2 mps 608 mmHg 87%
    22:00 +15°C° 0.4 mm 1 mps 608 mmHg 88%
    23:00 +15°C° 0 mm 1 mps 608 mmHg 89%
    Show more